Theta_e
314 314 314 317 318 319 320 320 321 320 318 314 313 312 312 313 311 308 309 315 318 324 324 325 323 318 318 317 318 316 317 317 318 320 319 325 326 325 326 324 327 323 323 324 330 332 330 327 329 333 330 328 335 335
313 313 315 318 317 318 319 320 320 319 316 313 313 312 312 313 312 308 309 314 312 321 323 324 321 321 318 318 313 314 315 320 317 320 320 320 327 320 320 324 323 325 322 324 326 328 324 325 327 325 325 332 330 331
313 313 313 314 315 316 318 319 319 316 312 312 312 312 312 312 312 309 308 309 318 323 321 319 317 320 320 319 320 316 315 317 317 315 316 315 319 318 321 320 326 325 324 324 326 327 326 327 324 331 328 330 327 325
313 313 314 315 316 316 316 319 316 312 311 311 311 311 311 312 312 310 308 313 310 319 327 323 326 320 320 321 320 320 317 318 314 312 314 314 316 316 317 317 322 322 323 324 324 326 325 326 328 331 330 326 324 322
315 315 316 315 315 315 315 315 312 312 311 311 311 311 311 312 312 308 308 309 310 319 325 323 324 325 325 321 321 322 321 316 316 317 316 318 317 320 318 317 320 322 323 325 324 321 322 324 326 330 329 326 323 321
314 314 314 313 313 312 312 312 312 312 311 312 311 311 312 312 309 309 313 318 312 315 324 326 324 323 320 322 322 322 320 318 315 316 315 318 320 320 321 321 321 320 318 322 325 320 323 325 330 330 328 325 323 321
311 311 312 312 313 312 311 312 312 311 311 312 312 311 312 312 308 310 316 320 317 315 324 326 323 321 321 321 319 319 321 319 317 313 315 318 319 317 315 318 319 320 318 322 323 322 324 321 328 328 327 326 323 322
306 306 311 312 312 312 312 312 311 311 312 312 311 312 312 308 307 309 310 316 313 316 320 321 319 323 321 319 320 316 320 319 319 314 316 319 320 318 317 316 319 319 321 323 324 322 320 319 327 328 328 325 324 322
306 305 305 308 310 311 312 313 311 312 312 312 313 311 307 308 311 314 312 313 315 320 320 318 319 327 321 321 319 320 318 321 317 318 317 320 316 317 319 319 320 323 322 320 321 319 320 321 322 326 327 326 325 323
307 306 305 305 306 310 311 312 311 312 312 313 307 309 312 317 312 319 318 319 320 318 320 326 319 318 321 321 322 322 319 320 322 322 318 320 320 316 316 316 314 318 319 317 319 319 320 321 321 321 320 325 325 323
310 307 306 305 305 307 309 310 311 313 311 307 309 313 320 319 319 320 323 319 318 319 313 318 322 324 319 325 326 324 324 320 323 319 322 322 322 321 320 316 315 318 318 317 318 316 314 315 315 314 315 320 324 323
309 308 306 305 305 308 308 308 310 312 311 311 309 311 316 321 321 322 321 319 319 318 315 313 312 316 321 322 324 325 324 320 321 319 323 323 321 322 321 319 317 319 318 318 322 320 316 317 315 315 314 318 321 322
310 309 308 306 305 307 308 308 308 311 310 309 314 318 322 321 319 323 324 324 319 319 316 315 315 313 322 321 324 326 326 322 319 324 326 321 322 323 319 319 318 320 321 320 321 319 318 317 317 316 314 317 317 317
309 309 309 308 305 307 308 307 307 309 307 314 321 317 321 324 323 322 321 318 318 317 317 318 317 325 322 324 321 325 322 320 324 324 324 319 322 322 318 317 317 320 320 320 317 317 316 316 317 317 316 316 317 316
309 309 310 310 307 308 307 308 308 307 312 318 320 317 322 321 321 320 319 318 319 319 321 323 322 322 323 323 321 323 325 324 323 322 319 318 319 320 317 316 316 317 317 315 316 314 315 315 316 317 317 317 318 318
309 309 310 310 308 308 309 307 307 309 314 318 318 321 321 321 322 323 324 321 321 325 323 323 327 327 327 326 324 324 323 325 321 318 320 322 321 318 316 315 316 317 316 316 316 315 315 315 315 315 316 316 316 317
309 309 311 309 309 309 308 307 310 313 315 317 316 315 317 318 319 320 322 322 321 323 327 327 330 329 327 327 327 321 320 318 317 322 323 321 320 318 316 316 317 317 316 317 317 316 316 316 316 316 315 317 317 317
309 311 310 309 309 309 308 309 312 314 315 313 315 316 315 317 317 318 318 323 324 324 324 325 327 331 329 328 325 322 318 319 322 322 322 323 320 319 320 318 320 320 319 318 318 319 317 316 315 315 316 317 317 318
309 309 309 309 310 311 312 311 312 316 316 314 314 314 313 314 315 317 321 324 323 322 324 326 327 330 329 327 327 325 325 325 327 327 325 324 327 327 326 325 324 324 324 322 321 319 319 318 317 316 318 316 315 314
307 308 308 308 309 311 314 314 311 315 316 316 314 314 314 315 316 315 319 321 320 321 323 328 328 326 327 324 323 325 325 324 325 325 323 319 322 324 326 328 329 330 330 328 326 324 320 319 318 319 317 315 314 312
308 309 309 308 309 310 312 315 316 316 317 317 315 316 316 315 316 316 316 319 321 321 322 322 323 323 324 322 325 325 324 322 321 323 324 323 320 321 322 323 323 324 327 325 320 319 320 315 316 316 314 313 313 313
308 309 309 309 311 313 314 313 314 315 316 316 316 318 321 321 318 316 315 320 322 321 321 322 322 320 318 320 320 323 326 324 322 321 320 319 316 316 318 323 322 322 323 323 322 321 318 316 318 318 314 313 313 313
309 309 310 310 313 311 311 312 314 315 318 319 321 322 322 322 320 320 322 321 319 316 320 319 319 322 320 320 321 324 324 322 323 321 317 319 320 323 325 327 327 324 322 323 324 322 318 316 314 312 312 312 313 313
308 310 313 313 312 313 314 315 316 317 319 321 322 322 323 324 322 323 324 321 320 319 319 321 322 322 322 326 326 328 327 324 323 323 324 324 321 323 321 319 321 323 325 322 318 314 312 311 311 312 312 314 314 311
309 308 311 309 313 315 317 321 321 323 323 322 323 323 324 322 323 324 324 324 322 320 321 321 321 321 324 324 323 323 324 324 320 316 319 322 325 322 319 322 322 320 320 317 311 310 311 311 312 312 312 313 313 310
309 311 311 315 317 316 319 324 324 325 324 324 325 322 321 324 325 324 325 324 322 318 319 320 319 318 319 321 321 321 326 323 321 321 322 320 324 323 320 316 315 316 317 317 313 311 311 311 311 312 311 310 311 309
312 314 315 311 316 319 323 322 320 321 325 326 326 325 326 327 326 325 325 321 320 320 319 320 322 321 320 321 323 322 324 326 323 321 320 320 322 322 323 319 316 319 317 316 314 311 311 311 311 310 309 309 309 309
313 317 317 320 319 318 321 319 321 323 324 324 325 326 327 326 325 322 321 322 321 320 321 322 321 323 324 324 323 322 322 321 320 319 319 318 318 318 318 318 319 319 316 315 314 312 312 312 311 310 309 309 309 310
317 318 318 318 320 319 320 320 321 321 320 323 326 325 325 323 320 318 320 319 320 321 322 322 324 324 322 321 321 322 321 320 319 319 319 317 314 317 316 316 315 314 314 314 313 313 313 312 310 309 310 311 311 310
313 312 314 317 319 319 316 316 317 321 320 322 322 323 322 319 319 318 319 320 320 319 319 320 323 323 320 320 319 319 320 320 320 319 316 314 316 318 317 316 314 314 313 313 313 312 311 310 309 310 311 311 311 311
311 311 314 316 315 315 317 315 315 317 320 319 322 324 322 322 321 321 322 321 323 323 321 316 316 317 318 320 319 317 315 319 319 316 316 317 317 317 317 316 314 314 314 313 313 312 311 310 310 311 311 311 311 311
315 315 315 316 316 317 316 318 318 318 321 323 323 322 322 318 320 320 319 318 321 318 316 315 313 314 317 317 317 317 317 317 315 314 315 316 317 317 316 315 313 314 314 314 313 311 310 310 311 311 311 311 311 311
314 314 314 315 316 317 316 317 319 325 324 324 323 323 323 321 323 321 320 318 315 314 314 314 314 313 314 314 314 314 315 317 316 316 315 314 314 314 317 316 315 313 312 313 312 311 311 311 311 311 311 311 311 312
Wind_Speed
24 23 21 20 20 20 20 21 22 22 22 21 16 15 13 11 11 12 12 6 2 2 5 2 6 4 4 3 3 4 4 5 4 4 3 1 3 3 1 2 5 5 3 2 1 4 6 1 5 5 4 3 4 4
21 21 19 17 18 19 19 20 21 22 21 18 14 13 13 10 9 9 6 4 12 5 6 16 16 14 1 5 5 2 6 3 4 4 1 3 2 2 3 2 1 2 5 5 5 5 3 3 2 2 4 7 5 8
20 19 18 16 16 16 17 18 20 20 16 14 14 12 13 10 7 8 10 13 5 2 5 2 5 17 10 7 6 4 2 3 2 5 4 3 2 5 4 5 4 4 3 3 2 3 4 3 2 4 3 6 9 5
18 16 14 13 14 15 15 16 16 15 13 15 15 12 13 10 7 9 8 6 8 4 2 6 11 1 10 8 7 6 4 2 4 3 2 3 2 4 4 3 4 4 5 4 1 4 3 6 1 8 10 11 12 10
13 12 12 12 12 14 14 13 13 13 14 13 14 13 10 8 8 11 16 17 11 3 2 4 14 13 7 11 9 8 7 3 2 2 2 3 2 3 3 3 3 2 5 5 5 8 5 6 7 11 12 12 11 13
8 8 10 10 11 10 10 11 11 12 13 10 10 7 7 7 6 4 4 4 11 9 1 3 4 4 11 14 10 7 3 2 3 3 3 2 1 4 3 1 6 6 3 2 5 9 5 7 13 8 12 10 11 11
6 6 7 7 7 8 10 10 12 12 10 8 8 9 6 6 6 5 4 7 4 8 2 3 4 5 15 8 2 1 0 2 3 1 1 3 1 4 3 3 6 7 4 5 5 8 2 6 7 11 15 16 18 14
5 5 6 5 7 8 9 9 10 9 7 7 9 8 5 6 10 10 15 10 12 5 1 2 4 3 6 2 1 2 2 1 2 3 1 3 2 2 1 5 8 8 6 3 7 7 7 8 15 13 16 18 11 10
7 7 6 6 7 8 9 10 9 6 7 7 6 3 2 4 4 5 5 5 8 2 2 2 3 3 1 1 1 2 2 0 1 3 3 4 0 3 7 8 7 11 9 9 8 8 8 12 12 13 14 14 13 12
8 7 7 7 8 8 8 8 6 6 5 3 1 1 2 7 4 6 3 2 2 2 2 3 2 3 3 1 1 2 1 3 1 5 2 3 4 5 7 9 8 9 9 9 6 5 6 7 11 11 9 13 15 17
9 9 8 7 8 8 8 7 5 3 1 1 2 2 7 2 5 1 2 2 2 3 3 4 4 2 2 3 3 2 3 1 0 5 4 2 3 6 9 10 8 6 9 9 8 9 10 9 7 7 7 11 18 21
8 9 8 8 8 9 8 6 4 3 1 2 10 9 5 1 1 2 4 3 4 5 3 6 6 5 3 3 3 2 1 2 5 2 3 3 4 5 7 8 8 7 9 9 9 11 14 15 17 15 15 16 18 19
9 9 9 8 9 10 7 6 5 6 7 4 2 2 2 1 0 5 6 4 3 3 3 3 2 5 2 2 2 4 5 5 1 1 4 5 4 3 6 6 6 8 11 8 6 17 18 15 18 22 17 25 27 25
9 9 9 10 9 10 6 5 3 3 2 1 2 1 4 4 5 5 3 4 5 2 2 3 3 4 3 3 3 4 5 3 3 3 5 3 8 8 8 6 7 8 8 8 8 14 15 16 15 20 22 20 24 22
8 8 9 10 7 3 4 3 4 5 1 3 2 4 6 6 3 1 3 4 6 2 1 2 2 3 1 3 3 2 2 5 5 5 4 5 8 9 8 8 8 8 7 7 11 12 14 17 17 17 18 16 17 16
5 7 7 5 3 2 3 4 4 2 3 3 4 3 4 4 2 3 4 4 1 2 2 4 2 1 2 2 1 6 3 5 5 4 4 5 9 8 7 7 9 12 13 12 16 19 20 20 20 21 20 20 20 19
4 3 2 4 4 3 5 3 2 3 3 4 4 4 5 4 4 2 3 3 2 3 2 3 4 6 1 3 2 5 5 6 5 3 3 8 12 9 8 6 9 14 15 18 18 22 26 28 27 24 15 23 23 25
4 2 3 4 5 4 3 3 1 2 4 4 3 4 3 3 2 4 3 1 2 3 4 3 1 2 4 5 4 5 4 4 3 5 6 5 6 8 13 9 14 17 18 22 25 26 26 25 21 20 27 26 26 27
4 3 7 7 8 2 3 3 3 3 6 4 4 5 4 4 3 3 1 2 2 3 5 3 2 2 4 3 0 3 2 1 4 3 4 5 8 1 10 16 18 17 19 21 22 20 24 31 29 26 26 30 24 26
7 5 7 8 7 2 3 3 5 3 4 4 3 6 4 4 3 2 4 3 2 2 2 4 5 4 5 4 3 2 2 4 5 4 3 3 4 2 4 6 8 16 20 22 17 16 10 7 17 23 25 26 24 22
3 5 7 7 4 5 3 2 3 3 4 3 3 4 4 2 3 4 4 4 3 4 3 4 5 9 11 11 6 4 1 1 2 4 5 5 11 16 13 12 8 17 10 8 8 13 19 17 18 16 15 19 23 28
2 8 4 6 3 3 4 6 3 4 3 4 4 3 3 2 3 4 4 3 4 4 4 4 7 9 6 7 6 19 17 15 17 11 13 7 2 4 3 9 8 5 7 8 13 14 17 24 31 32 33 31 34 29
4 5 3 4 3 2 6 3 3 3 3 3 1 2 2 2 4 3 2 3 4 5 6 5 6 12 11 14 11 11 18 15 1 12 12 6 13 16 10 9 10 8 5 7 12 16 20 23 28 29 30 31 26 15
3 2 3 4 4 3 3 3 3 3 3 2 2 3 3 4 1 2 3 3 3 1 1 2 3 1 2 5 5 8 14 20 18 17 19 11 4 8 11 9 5 3 8 9 12 16 21 23 27 28 28 27 19 24
2 3 3 4 3 3 4 4 4 3 4 5 4 3 2 3 2 0 3 2 2 2 2 2 6 5 4 4 3 2 13 18 9 5 7 9 7 10 6 5 7 5 7 14 15 18 19 21 24 24 21 18 21 19
3 5 7 4 4 4 4 3 4 3 1 0 2 2 3 1 1 3 3 1 2 1 2 2 4 4 3 4 3 1 2 2 4 1 2 5 6 11 6 4 3 5 10 10 19 19 20 21 20 20 17 19 24 21
4 6 5 4 3 3 3 6 4 3 3 2 3 2 2 3 3 3 2 3 3 4 6 8 4 2 3 3 6 8 6 7 5 8 8 10 9 5 9 13 7 10 13 13 18 24 24 22 18 16 17 20 25 15
4 3 6 4 4 4 5 3 2 2 2 3 3 2 2 2 4 2 1 6 5 5 3 5 6 4 11 14 11 9 10 11 10 9 8 7 6 4 3 1 4 8 11 15 19 20 21 20 18 20 18 18 18 17
5 4 5 7 7 5 4 3 2 3 3 2 1 1 1 2 1 2 2 4 10 11 11 8 11 8 8 11 11 14 15 13 9 4 5 3 2 2 2 0 5 7 11 12 15 17 17 19 20 18 13 3 1 4
5 3 2 2 3 3 3 5 3 4 3 3 3 1 2 2 3 5 7 6 9 9 12 6 11 16 13 11 8 10 15 17 18 12 5 5 9 8 11 8 7 9 10 14 17 14 14 15 16 13 6 2 5 8
2 1 2 2 3 4 5 5 3 3 4 3 2 2 0 2 4 5 7 8 10 12 11 7 7 6 8 15 14 6 5 18 13 9 6 7 15 15 14 11 12 15 16 16 19 18 16 15 14 15 13 12 12 12
1 3 3 4 3 4 5 3 3 3 3 2 2 2 1 3 2 3 3 5 6 5 4 15 12 10 16 14 13 9 10 15 14 12 11 12 13 16 15 14 16 20 20 19 20 21 23 24 24 24 22 20 18 21
2 3 3 2 3 3 3 1 1 3 2 1 2 4 3 4 3 3 4 1 10 19 15 12 11 12 9 7 6 3 4 12 17 17 15 13 12 12 20 19 19 23 24 24 25 25 26 26 26 26 25 25 25 23
Wind_Direction
300 299 288 286 288 278 281 287 296 306 311 317 317 322 318 322 331 333 297 312 284 285 283 286 343 347 32 69 117 269 38 353 30 64 95 135 136 231 186 220 153 182 132 237 49 121 260 212 299 116 190 1 95 102
301 301 292 281 286 281 278 283 293 303 307 311 306 318 313 309 320 329 287 275 316 211 249 303 300 290 168 189 149 8 172 217 190 89 76 128 123 127 184 243 126 227 181 178 185 215 230 273 211 159 179 142 156 147
297 296 292 286 285 280 277 283 293 300 308 308 305 308 305 294 300 306 294 314 328 309 301 347 270 291 254 284 157 115 306 198 6 173 167 188 205 131 168 238 159 227 179 143 85 270 227 237 172 161 188 124 124 111
296 293 289 284 278 273 275 284 293 300 307 306 301 297 294 283 280 292 281 245 305 273 254 277 355 356 168 143 102 101 153 66 110 89 135 147 169 173 208 179 166 189 121 127 348 338 9 296 307 142 129 122 112 110
297 291 282 275 274 277 282 287 293 300 307 308 304 293 278 278 280 279 276 270 249 245 263 282 316 280 248 152 139 109 87 95 82 20 79 236 222 94 348 69 1 258 164 152 213 202 176 208 198 169 145 136 136 124
302 294 286 284 282 284 286 292 299 303 304 313 315 292 285 281 287 309 331 13 194 233 254 306 275 274 178 167 139 126 156 142 126 153 221 268 320 101 99 176 247 258 40 342 195 165 184 161 152 164 127 136 138 132
300 309 304 296 292 292 295 300 302 303 298 292 300 295 284 276 266 209 220 149 147 332 215 304 306 271 172 137 100 141 222 215 147 206 198 162 239 93 110 184 236 252 330 303 160 123 109 142 158 155 146 146 143 144
287 317 326 322 317 308 307 303 306 307 292 294 294 281 270 265 278 273 248 234 260 253 197 226 264 13 148 138 194 175 190 32 290 208 45 126 22 56 224 234 199 239 196 259 175 195 176 143 147 155 150 143 151 156
269 292 312 326 323 318 319 308 304 294 300 295 281 273 283 217 228 237 237 222 194 211 212 199 167 236 27 177 139 8 108 40 292 185 226 108 68 200 212 203 173 189 186 188 192 171 164 154 162 159 162 172 167 174
264 281 299 315 317 311 311 305 297 299 297 274 262 119 266 217 222 143 151 65 16 263 228 223 185 215 106 104 279 98 48 206 205 243 104 128 233 242 200 191 185 173 197 162 144 135 142 151 166 171 173 188 180 178
260 271 287 304 315 311 304 302 298 301 212 225 232 225 302 162 172 71 201 146 209 242 216 219 171 196 310 118 203 196 187 222 43 261 136 254 267 241 183 182 184 187 183 181 169 172 160 151 152 136 133 145 168 179
256 263 276 290 305 314 297 290 270 208 234 303 297 294 286 260 77 188 200 220 179 216 230 168 194 171 228 115 115 286 268 52 238 186 111 264 254 258 170 174 184 183 181 175 159 179 174 157 165 154 145 141 145 151
257 259 267 280 296 310 291 267 257 232 262 297 237 240 90 334 252 206 209 211 197 224 214 158 159 152 32 82 107 145 221 229 64 113 218 222 228 206 175 151 160 177 180 165 148 173 168 161 167 159 155 154 152 156
256 259 268 272 291 302 270 235 230 189 230 234 219 303 178 230 231 206 228 208 237 211 131 135 140 153 183 136 175 136 228 105 245 220 232 236 205 192 177 174 152 180 182 177 166 164 157 152 162 173 171 171 176 179
254 265 279 272 288 265 222 213 195 187 244 255 198 231 224 228 283 310 271 299 278 282 122 65 54 110 88 136 178 151 214 218 206 222 223 231 189 171 174 178 175 177 178 173 172 167 165 166 160 168 179 177 170 178
263 287 280 246 226 191 181 157 138 203 248 243 240 253 274 303 317 344 309 298 193 87 332 80 70 27 176 163 155 206 204 209 237 211 228 154 162 174 175 179 188 186 183 183 183 185 183 181 185 193 190 189 185 180
243 231 277 188 181 170 154 136 142 228 245 242 245 247 257 265 246 224 243 275 291 74 98 68 134 245 135 140 226 194 206 225 226 238 172 175 171 180 184 183 187 192 192 196 199 200 198 199 198 198 197 210 203 187
227 272 232 188 172 149 168 198 230 257 259 269 261 273 274 261 284 310 329 320 62 121 129 144 62 75 289 189 224 240 256 256 209 189 164 170 168 182 185 190 201 204 206 209 210 211 207 200 196 207 210 211 182 175
201 244 209 188 178 201 202 215 207 263 238 252 249 252 253 256 244 249 181 66 101 122 117 94 134 201 245 292 18 309 359 239 136 75 50 65 87 175 215 212 217 218 219 220 218 211 211 209 207 207 201 182 174 169
242 237 202 194 188 244 232 213 194 245 263 239 218 228 228 224 226 203 161 156 126 114 153 174 188 162 231 243 265 137 30 324 92 75 60 342 30 109 202 221 245 262 244 237 231 223 211 206 208 193 182 176 161 161
232 205 191 186 206 224 270 237 211 236 256 240 269 162 221 213 211 207 198 150 137 197 216 223 198 207 181 219 148 109 308 69 217 203 198 215 211 227 229 237 262 273 227 172 148 129 139 141 141 147 154 160 163 160
242 175 153 183 235 235 244 241 227 277 258 257 307 191 226 244 228 217 163 151 204 215 195 200 221 223 224 197 199 190 194 213 256 227 237 200 218 249 259 265 182 160 173 187 182 169 168 167 167 169 169 157 154 155
173 179 184 179 232 211 260 259 232 248 245 255 172 187 236 274 235 139 217 197 207 223 219 228 236 206 210 216 200 173 147 137 237 279 272 257 246 261 212 178 178 173 174 176 195 197 178 175 166 158 154 149 154 168
189 217 228 196 200 261 266 245 230 248 248 246 249 234 218 219 181 115 205 214 213 265 137 347 348 250 182 128 136 135 178 211 202 236 235 225 228 212 189 174 165 341 266 184 174 180 170 162 160 156 157 156 171 172
168 240 205 237 219 233 239 235 209 224 243 210 214 254 314 334 34 248 239 231 344 335 278 101 68 17 99 91 84 208 178 188 176 198 208 195 163 160 198 175 130 114 165 154 160 158 160 162 165 163 160 158 173 190
215 212 193 215 190 210 226 256 203 239 243 65 67 312 328 23 39 319 297 215 270 291 351 94 126 132 108 149 121 224 252 149 127 98 305 227 181 168 184 185 135 165 198 206 175 166 168 171 165 167 173 181 188 189
234 220 206 229 263 279 250 255 241 211 179 151 145 242 212 219 173 223 206 200 202 232 230 216 135 138 209 100 118 146 152 173 143 124 102 80 75 67 200 189 194 217 201 202 190 178 173 174 174 180 178 177 193 208
249 257 217 190 213 219 253 276 276 103 54 123 221 213 94 162 216 250 299 353 337 348 349 246 271 124 138 160 166 141 125 126 118 114 110 92 81 104 149 158 228 211 196 195 190 186 179 180 181 182 184 197 219 233
234 231 204 225 201 224 222 221 200 161 187 205 41 21 241 250 251 210 205 301 328 309 295 252 261 225 187 163 163 175 168 169 163 189 212 238 282 242 225 90 150 169 181 185 183 182 189 191 186 187 184 205 168 216
246 195 281 270 201 233 240 186 208 181 154 178 132 246 31 277 280 257 258 302 320 313 317 189 190 199 192 176 180 206 202 209 209 203 191 202 211 206 201 188 175 167 173 178 177 183 180 185 195 187 191 282 276 269
252 168 253 258 264 252 231 232 234 160 169 173 139 136 339 335 314 293 291 304 310 311 314 338 351 94 174 191 207 184 228 232 213 183 175 192 183 190 200 195 185 182 187 182 189 189 193 198 197 202 227 251 259 249
309 217 217 258 270 306 320 105 220 211 140 106 104 85 105 18 315 288 314 341 295 266 89 103 81 72 95 85 99 113 170 174 157 156 164 174 195 202 197 188 179 181 184 189 190 191 190 185 195 211 225 237 253 255
287 326 346 339 342 331 295 17 341 89 27 99 156 157 173 169 200 247 319 7 83 111 118 109 100 98 104 99 84 81 148 182 189 195 205 194 190 205 200 199 196 190 188 189 192 195 200 206 214 221 228 234 238 242